Location: Grisols
(45.0093°N, 3.1167°E)
Time: 11:01:02
(UTC+00:00)

Meteor 2-10 - Pass Details

Date: 21 October 2019
Orbit: 738 x 868 km, 81.2° (Epoch: 18 November)

Event Time Altitude Azimuth Distance (km) Brightness Sun altitude
Rises 17:12:36 0° 172° (S) 3,188 7.3 -4.2°
Reaches altitude 10° 17:15:00 10° 167° (SSE) 2,256 6.4 -4.6°
Maximum altitude 17:19:49 47° 94° (E) 976 4.2 -5.4°
Drops below altitude 10° 17:24:38 10° 22° (NNE) 2,256 6.1 -6.3°
Sets 17:27:02 0° 17° (NNE) 3,188 7.0 -6.7°
